Temp_Advection
nan nan nan nan nan nan nan nan nan nan nan nan nan nan nan nan nan nan nan nan nan nan
nan -0 -0 -0 -0 -0 -0 0 -0 -0 -1 -1 -1 -0 0 0 0 0 -1 -2 -1 nan
nan -0 -0 -0 -0 -0 -0 -0 0 0 -0 -0 -0 -1 -1 -1 -0 0 0 1 -1 nan
nan -0 -0 -0 -0 -0 -0 -0 -0 -0 -0 -0 -0 0 -0 -0 -0 -0 -0 1 0 nan
nan -0 -0 -0 -0 -0 -0 -0 -0 -0 -0 -0 0 1 0 -1 -0 0 -1 0 1 nan
nan -0 -0 -0 -0 -0 -0 -0 0 -0 -0 -0 -0 -0 0 0 -0 -0 -0 0 0 nan
nan -0 -0 -0 -0 0 -0 -0 0 0 0 -0 0 0 -0 0 0 -0 -0 -0 0 nan
nan -0 -0 -0 -0 0 0 0 0 0 -0 -0 0 1 0 -1 -0 -0 -0 -0 0 nan
nan -0 -0 -0 -0 -0 -0 0 0 -0 0 -0 0 -0 -1 -1 -0 0 -0 0 0 nan
nan -1 -0 -0 -0 0 0 -0 -0 -0 0 0 0 -0 -1 -1 -1 -0 -0 0 0 nan
nan -1 -1 -0 -0 0 0 -0 -0 -0 -0 0 0 -0 -1 -0 -0 -0 -1 -0 -0 nan
nan -0 -1 -1 -0 -0 0 -1 -0 0 -0 -0 0 0 -1 -1 -0 0 -0 -1 -0 nan
nan -0 -0 -1 -0 -1 -0 -0 -1 -0 0 0 -0 1 0 -1 -1 -1 -0 -1 -0 nan
nan nan nan nan nan nan nan nan nan nan nan nan nan nan nan nan nan nan nan nan nan nan
Wind_Speed
30 32 33 34 35 37 39 40 40 39 39 39 39 39 40 40 40 38 38 38 37 37
31 32 33 33 35 37 38 40 41 40 41 40 40 39 39 41 43 42 41 41 39 40
31 32 33 35 37 38 39 40 41 42 42 41 41 40 40 41 42 42 43 42 41 41
33 34 35 37 39 40 42 42 42 42 43 42 41 40 40 41 42 42 43 43 43 44
35 36 38 40 41 42 44 43 44 43 43 43 42 42 42 42 42 43 44 44 43 45
36 38 40 42 44 45 45 46 45 44 44 44 43 43 43 43 45 45 46 47 46 45
39 40 42 45 46 47 47 47 46 45 44 44 44 44 44 45 47 48 48 48 48 47
40 42 45 46 47 47 47 46 45 45 45 44 44 44 42 43 46 48 50 49 49 48
41 44 46 47 48 47 46 45 46 45 45 46 45 41 41 43 47 49 51 50 48 49
42 45 47 47 47 47 46 47 46 46 47 50 50 46 44 44 46 49 50 51 51 50
43 46 46 46 46 46 46 46 47 50 49 51 51 45 42 43 44 47 48 48 49 51
43 45 45 45 45 46 47 47 49 50 50 50 49 44 42 42 44 46 47 46 47 48
42 42 43 43 45 47 45 49 48 49 48 49 48 46 44 42 44 48 50 51 50 45
40 40 40 43 46 46 45 46 48 50 48 49 46 45 42 41 42 46 50 50 48 46
Wind_Direction
321 319 318 320 319 317 318 318 317 315 311 308 304 301 299 297 293 290 287 283 281 279
321 320 318 317 317 316 316 316 313 310 307 304 301 298 295 293 292 291 288 284 280 277
319 320 320 320 319 318 316 314 312 309 307 304 301 299 296 292 289 288 286 283 280 277
321 324 323 321 320 320 317 317 313 311 307 305 302 299 295 292 289 285 283 280 276 274
326 325 324 323 323 322 319 317 315 312 308 305 303 300 296 293 289 284 280 278 272 270
327 327 326 326 324 323 321 319 316 312 308 305 303 300 297 293 289 285 281 279 273 269
329 329 328 327 326 324 322 318 315 312 308 306 305 302 299 293 286 282 279 277 273 269
330 330 329 327 325 323 321 318 316 314 312 311 308 305 295 290 287 285 283 281 279 276
330 329 329 327 325 323 322 321 319 318 317 315 312 301 291 285 282 280 277 274 273 274
331 330 329 327 326 325 325 324 324 322 321 315 311 302 294 288 283 280 278 276 272 269
332 330 329 328 328 327 329 328 327 324 320 315 311 304 297 292 287 282 279 275 272 269
333 331 331 330 330 332 333 330 327 322 316 315 316 311 302 298 294 289 284 280 276 270
334 333 332 334 335 336 335 326 322 325 322 321 318 321 309 302 295 290 286 284 281 271
335 336 337 339 339 338 333 330 333 327 326 325 320 321 317 308 299 291 285 278 272 267
Height
1536 1530 1525 1520 1515 1510 1504 1499 1495 1490 1487 1483 1480 1475 1472 1467 1464 1462 1459 1457 1455 1453
1531 1526 1520 1515 1510 1503 1498 1492 1487 1483 1479 1475 1470 1467 1462 1457 1453 1450 1447 1445 1444 1442
1523 1520 1515 1508 1501 1496 1490 1484 1479 1474 1469 1464 1459 1455 1451 1446 1443 1439 1436 1433 1431 1430
1517 1511 1505 1500 1493 1487 1481 1475 1469 1464 1458 1453 1448 1444 1440 1435 1431 1428 1425 1423 1420 1417
1510 1504 1498 1492 1486 1479 1471 1465 1459 1453 1447 1441 1437 1432 1428 1423 1419 1416 1412 1410 1409 1406
1502 1495 1489 1482 1476 1469 1461 1454 1448 1443 1436 1430 1426 1421 1416 1411 1406 1402 1399 1397 1396 1394
1496 1489 1479 1473 1466 1459 1453 1445 1438 1432 1425 1420 1414 1409 1403 1398 1392 1388 1385 1383 1382 1381
1489 1481 1474 1465 1458 1450 1443 1435 1428 1420 1414 1408 1402 1396 1390 1385 1379 1374 1370 1369 1367 1366
1482 1475 1467 1458 1450 1441 1433 1425 1417 1410 1402 1395 1389 1384 1380 1375 1368 1363 1359 1355 1353 1351
1477 1468 1459 1451 1442 1432 1423 1415 1407 1399 1392 1383 1376 1371 1366 1361 1354 1349 1344 1341 1340 1338
1469 1461 1453 1444 1434 1424 1415 1406 1397 1388 1381 1372 1364 1358 1352 1346 1339 1333 1329 1326 1325 1323
1465 1455 1446 1437 1426 1417 1407 1398 1389 1380 1372 1363 1354 1346 1339 1333 1325 1318 1312 1309 1307 1306
1460 1450 1441 1431 1420 1409 1400 1391 1382 1371 1364 1354 1343 1334 1326 1319 1312 1304 1298 1292 1289 1289
1455 1445 1436 1424 1414 1404 1395 1385 1374 1365 1355 1345 1335 1324 1315 1308 1300 1291 1282 1275 1272 1271